Regional Weather Roundup
Issued by NWS Nashville, TN

Home | Current Version | Previous Version | Text Only | Print | Product List | Glossary On
Versions: 1 2 3 4 5 6 7 8 9 10 11 12 13 14 15 16 17 18 19 20 21 22 23 24 25 26 27 28 29 30 31 32 33 34 35 36 37 38 39 40 41 42 43 44 45 46 47 48 49 50
000
ASUS44 KOHX 261105
RWROHX
MIDDLE TENNESSEE HOURLY WEATHER ROUNDUP
NATIONAL WEATHER SERVICE NASHVILLE TN
500 AM CST MON JAN 26 2015

NOTE: "FAIR" INDICATES FEW OR NO CLOUDS BELOW 12,000 FEET WITH
NO SIGNIFICANT WEATHER AND/OR OBSTRUCTIONS TO VISIBILITY.

* THESE REPORTS ARE NOT UNDER NWS QUALITY CONTROL AND MAY NOT
  REPORT WEATHER SUCH AS PRECIPITATION AND FOG.


TNZ005>011-023>034-057-059-062>066-078-080-261200
...NORTHERN MIDDLE TENNESSEE...

CITY           SKY/WX    TMP DP  RH WIND       PRES   REMARKS
CLARKSVILLE    CLOUDY    33  29  85 NW18G30   29.93R WCI  22
CROSSVILLE     MIX PCPN  37  34  89 NW9       29.73R WCI  30
NASHVILLE      CLOUDY    34  31  88 NW15G26   29.90R WCI  24
SMYRNA         CLOUDY    33  32  96 NW17G28   29.90R WCI  22
SPARTA         CLOUDY    37  37 100 NW10      29.77R WCI  30
$$
TNZ056-058-060-061-075>077-079-093>097-261200
...SOUTHERN MIDDLE TENNESSEE...

CITY           SKY/WX    TMP DP  RH WIND       PRES   REMARKS
COLUMBIA       CLOUDY   N/A N/A N/A N12       29.88R
MCMINNVILLE    CLOUDY    36  36 100 NW10      29.80R WCI  28
SHELBYVILLE    CLOUDY    36  36 100 NW18      29.86R WCI  25
TULLAHOMA      CLOUDY    36  34  93 NW15      29.82R WCI  26
WINCHESTER     CLOUDY    37  36  93 NW12      29.82R WCI  30
$$


...KEY TO REMARKS...
VSB - VISIBILITY IN MILES
WCI - WIND CHILL INDEX
HX  - HEAT INDEX




USA.gov is the U.S. government's official web portal to all federal, state and local government web resources and services.